Flag for U.S.A. Weather past 2 weeks in Owensboro, Kentucky, U.S.A.

Now
23 °F

Clear.


Feels Like: 16 °F
Forecast: 11 / 18 °F
Wind: 6 mph from North

Location: Owensboro / Daviess

Current Time: Feb 27, 2015 at 5:28:53 PM

Latest Report: Feb 27, 2015 at 4:56 PM


Visibility: 10 mi

Pressure: 30.64 "Hg

Humidity: 55%

Dew point: 9 °F

Location of OwensboroLocation

Historic Weather in Owensboro — Graph

°F

Owensboro temperature yesterday

Maximum temperature yesterday: 33 °F (at 10:56 AM)
Minimum temperature yesterday: 18 °F (at 11:56 PM)
Average temperature yesterday: 26 °F

Past Weeks' High & Low Weather Summary

 TemperatureHumidityPressure
High37 °F (Feb 25, 1:56 PM)100% (Feb 21, 2:56 AM)30.69 "Hg (Feb 21, 2:56 AM)
Low-8 °F (Feb 17, 6:56 AM)36% (Feb 13, 3:56 PM)29.87 "Hg (Feb 25, 5:56 PM)
Average20 °F68%30.25 "Hg
* Reported Feb 12 3:56 PM — Feb 27 3:56 PM, Owensboro, Weather by CustomWeather, © 2015

Note: Actual official high and low records may vary slightly from our data, if they occured in-between our weather recording intervals... More about our weather records

Advertising

Owensboro weather history for previous 24 hours

 ConditionsComfort  
Time TempWeatherWind HumidityBarometerVisibility
3:56 PM
Fri, Feb 27
24 °FPassing clouds.7 mph50%30.63 "Hg10 mi
2:56 PM24 °FPassing clouds.8 mph50%30.63 "Hg10 mi
1:56 PM23 °FPassing clouds.6 mph53%30.63 "Hg10 mi
12:56 PM23 °FScattered clouds.7 mph53%30.64 "Hg10 mi
11:56 AM22 °FSunny.6 mph55%30.66 "Hg10 mi
10:56 AM20 °FSunny.7 mph65%30.66 "Hg10 mi
9:56 AM18 °FSunny.5 mph68%30.67 "Hg10 mi
8:56 AM16 °FSunny.5 mph70%30.66 "Hg10 mi
7:56 AM13 °FSunny.8 mph73%30.63 "Hg10 mi
6:56 AM12 °FSunny.8 mph81%30.60 "Hg10 mi
5:56 AM12 °FSunny.6 mph81%30.58 "Hg10 mi
4:56 AM13 °FClear.5 mph70%30.55 "Hg10 mi
3:56 AM15 °FClear.6 mph64%30.53 "Hg10 mi
2:56 AM15 °FClear.6 mph64%30.51 "Hg10 mi
1:56 AM16 °FClear.6 mph67%30.50 "Hg10 mi
12:56 AM17 °FClear.7 mph74%30.47 "Hg10 mi
11:56 PM
Thu, Feb 26
18 °FClear.7 mph70%30.45 "Hg10 mi
10:56 PM19 °FPassing clouds.8 mph71%30.43 "Hg10 mi
9:56 PM21 °FPassing clouds.8 mph68%30.42 "Hg10 mi
8:56 PM22 °FClear.13 mph68%30.40 "Hg10 mi
7:56 PM24 °FOvercast.15 mph65%30.36 "Hg10 mi
6:56 PM25 °FMostly cloudy.10 mph71%30.33 "Hg10 mi
5:56 PM26 °FMostly cloudy.15 mph69%30.29 "Hg7 mi
Weather by CustomWeather, © 2015

See weather overviewHow to use our weather pages